This is the latest recevied weather packets stored in our database for station/object ED5YAL-15. If no packets are shown the sender has not sent any weather packets the latest 10 day(s).
| Time | Temp. | Humidity | Pressure | Rain* | Wind** | Luminosity | Snow |
|---|---|---|---|---|---|---|---|
| 1777825896 | 18.33° C | 60% | 1016.8 hPa | - | - | - | - |
| 1777824995 | 18.33° C | 59% | 1016.7 hPa | - | - | - | - |
| 1777824094 | 18.33° C | 60% | 1016.8 hPa | - | - | - | - |
| 1777823193 | 17.78° C | 60% | 1017 hPa | - | - | - | - |
| 1777822292 | 18.33° C | 60% | 1017 hPa | - | - | - | - |
| 1777821392 | 18.33° C | 60% | 1017.1 hPa | - | - | - | - |
| 1777820491 | 18.89° C | 60% | 1017.2 hPa | - | - | - | - |
| 1777819635 | 19.44° C | 59% | 1017.2 hPa | - | - | - | - |
| 1777819590 | 19.44° C | 59% | 1017.2 hPa | - | - | - | - |
| 1777818689 | 18.89° C | 60% | 1017.2 hPa | - | - | - | - |
| 1777817788 | 21.11° C | 60% | 1017.4 hPa | - | - | - | - |
| 1777816907 | 20° C | 61% | 1017.5 hPa | - | - | - | - |
| 1777816013 | 18.33° C | 61% | 1017.6 hPa | - | - | - | - |
| 1777815278 | 18.33° C | 61% | 1018 hPa | - | - | - | - |
| 1777815278 | 17.22° C | 61% | 1017.8 hPa | - | - | - | - |
| 1777815105 | 18.33° C | 61% | 1018 hPa | - | - | - | - |
| 1777814204 | 17.22° C | 61% | 1017.8 hPa | - | - | - | - |
| 1777813303 | 16.67° C | 60% | 1017.7 hPa | - | - | - | - |
| 1777812402 | 16.67° C | 61% | 1017.8 hPa | - | - | - | - |
| 1777811502 | 16.67° C | 60% | 1017.6 hPa | - | - | - | - |
| 1777810601 | 17.22° C | 60% | 1018.1 hPa | - | - | - | - |
| 1777809700 | 17.22° C | 60% | 1018.1 hPa | - | - | - | - |
| 1777808799 | 15.56° C | 61% | 1018.3 hPa | - | - | - | - |
| 1777808647 | 16.11° C | 60% | 1018.6 hPa | - | - | - | - |
| 1777807898 | 16.11° C | 60% | 1018.6 hPa | - | - | - | - |
* Rain since midnight (hover to see other rain measurements)
** Current wind speed in m/s (hover to see current wind gust speed)